sat.trackr.live / text

‹ back to catalog

STARLINK-2763

NORAD 48670 · 2021-044AJ

PAYLOAD ACTIVE UNKNOWN

§ Identity

Operator
Country
US
Launch date
2021-05-26
Launch site
AFETR
Launch vehicle
Mass (kg)
RCS (m²)

Purposes: comms

External: N2YO · Heavens-Above · Gunter

§ Orbital elements

Epoch: 2026-09-19T16:40:36.483744Z

Period
94.01 min
Inclination
53.1586°
Eccentricity
0.0000958
Mean motion
15.31701674 rev/d
Perigee alt
470.1 km
Apogee alt
471.4 km
Semi-major
6,848.9 km
B*
2.0330e-6
RAAN
281.3463°
Arg perigee
102.2833°
Mean anomaly
257.8276°
Rev number
29,368

§ Raw data

STARLINK-27631 48670U 21044AJ  26262.69486671 -.00000302  00000+0  20330-5 0  99992 48670  53.1586 281.3463 0000958 102.2833 257.8276 15.31701674293683

JSON: /api/v1/satellites/48670 · /tle

For live sub-satellite position, see the globe view (requires WebGL).

§ Visibility from observer

Set your observer location to see the next 7 days of passes ≥ 10°. The values pass through the URL so the page stays shareable.

No JS? Fill the form by hand. The geolocation button needs JavaScript.